Location: Unspecified
(43.3830°N, 0.0000°E)
Time: 08:25:40
(UTC+00:00)

N. Korean satellite - Pass Details

Date: 03 December 2020
Orbit: 453 x 502 km, 97.2° (Epoch: 16 January)

Event Time Altitude Azimuth Distance (km) Brightness Sun altitude
Rises 04:49:59 0° 24° (NNE) 2,572 10.5 -25.7°
Reaches altitude 10° 04:52:19 10° 38° (NE) 1,693 9.6 -25.2°
Maximum altitude 04:55:24 25° 95° (E) 1,022 8.9 -24.7°
Drops below altitude 10° 04:58:30 10° 153° (SSE) 1,698 9.7 -24.1°
Sets 05:00:49 0° 167° (SSE) 2,580 10.5 -23.7°
